TIME,DELAY(SENSOR),PRES,OXYGEN,RAWTEMP,T(OPTODE),TCPHASE,FLUOR,BETA(BETA700),BETA(BETA412),BETA(BETA440),CDOM,C(CSC),ED(ED411.90),ED(ED443.80),ED(ED489.40),ED(ED554.70),LU(LU412.20),LU(LU443.80),LU(LU489.40),LU(LU555.00),COMP,TILTX,TILTY,CHECK
1362521457,5803,867.9799804687500000,182.1851043701172000,480.7253112792969000,8.1262626647949220,38.7170295715332000,69,361,96,78,81,11631,2146961051,2147519616,2147291254,2147504493,2147085952,2146928374,2147711881,2147125165,1228,-1,9,54847
1362525053,5806,958.0900268554688000,238.9096069335937500,549.6345214843750000,5.9809131622314450,36.5902709960937500,70,370,97,79,81,11631,2146961298,2147516498,2147302272,2147526829,2147089197,2146919542,2147729261,2147120118,1091,0,8,24213
1362528653,5805,986.6799926757812000,255.2147064208984400,561.3303222656250000,5.6132907867431640,35.9931602478027340,71,374,98,78,81,11630,2146960768,2147520329,2147300964,2147525723,2147087222,2146912749,2147729956,2147119771,3445,-1,8,55295
1362532253,5803,990.4699707031250000,256.5661926269531000,561.4058227539062000,5.6109118461608890,35.9301605224609400,69,375,98,79,80,11626,2146956708,2147518692,2147301421,2147525449,2147088941,2146911049,2147731382,2147120950,3425,-1,8,17889
1362535853,5809,993.5800170898438000,258.6278076171875000,562.8449707031250000,5.5655989646911620,35.8585090637207000,69,376,100,79,81,11621,2146963437,2147516470,2147299657,2147526016,2147089718,2146913755,2147735872,2147119844,34,0,8,56154
1362539453,5804,1001.0200195312500000,260.5343933105469000,563.7011718750000000,5.5386328697204590,35.7836494445800800,68,379,97,80,81,11622,2146960621,2147516736,2147302564,2147524480,2147088521,2146915099,2147736859,2147125257,3427,-1,8,3708
1362543053,5806,999.5000000000000000,259.4142150878906000,564.2885742187500000,5.5201277732849120,35.8476600646972660,68,377,97,78,80,11621,2146957824,2147518217,2147301193,2147527844,2147089993,2146919149,2147732672,2147122368,3404,0,8,37610
1362546653,5806,1000.1400146484375000,260.3564147949219000,565.3709716796875000,5.4860229492187500,35.8229598999023440,69,377,99,80,81,11619,2146959085,2147518034,2147300864,2147526116,2147086427,2146916434,2147733165,2147119990,3368,-1,8,46694
1362550253,5804,1004.2700195312500000,259.5580139160156000,565.2092285156250000,5.4911208152771000,35.8573188781738300,69,382,99,78,81,11617,2146962560,2147520713,2147298157,2147524041,2147088722,2146915017,2147735945,2147120073,3500,-1,8,21607
1362553853,5806,1001.2000122070312000,262.5401916503906000,566.4645996093750000,5.4515547752380370,35.7407112121582000,69,383,99,79,81,11617,2146961481,2147519972,2147302610,2147525970,2147088502,2146913417,2147733705,2147120292,369,0,8,30640
1362557453,5806,1004.7899780273438000,264.6943054199219000,567.5328979492188000,5.4178748130798340,35.6604499816894500,68,384,97,80,80,11616,2146962066,2147520768,2147301037,2147526674,2147089938,2146915776,2147733302,2147119250,3136,-1,8,54764
1362561053,5808,1007.7700195312500000,263.0469055175781000,566.6571044921875000,5.4454879760742190,35.7206115722656250,68,388,99,80,80,11615,2146961325,2147518134,2147298962,2147524644,2147088493,2146912100,2147733312,2147121801,359,-1,8,14424
1362564653,5808,1008.8300170898438000,261.3150024414062500,566.6552734375000000,5.4455428123474120,35.8017311096191400,69,395,97,79,81,11617,2146963977,2147519798,2147300708,2147527945,2147088173,2146916123,2147730925,2147120960,48,-1,8,16363
1362568253,5808,1009.3400268554688000,262.5451965332031000,565.6370849609375000,5.4776358604431150,35.7253494262695300,69,392,97,79,81,11617,2146961545,2147518171,2147304914,2147526848,2147088420,2146918235,2147731026,2147118692,3060,-1,8,40794
1362571853,5807,1016.5700073242188000,260.6241149902344000,563.7416992187500000,5.5373549461364750,35.7803001403808600,69,396,98,79,81,11613,2146961728,2147522432,2147299584,2147525952,2147089883,2146915437,2147731821,2147120493,3346,-1,8,9295
1362575453,5807,1015.5999755859375000,258.4153137207031000,562.4071044921875000,5.5793881416320800,35.8605003356933600,70,397,98,80,80,11609,2146963410,2147518683,2147300672,2147523044,2147087296,2146915163,2147734345,2147121929,172,-1,8,35992
1362579053,5803,1013.8900146484375000,258.2330932617187500,562.4390869140625000,5.5783791542053220,35.8697814941406250,69,401,98,79,81,11611,2146960576,2147519872,2147299949,2147526884,2147090596,2146922934,2147731355,2147119698,3443,-1,8,59747
1362582653,5806,1013.3200073242188000,258.3092956542969000,562.8922729492188000,5.5641078948974610,35.8738594055175800,69,399,97,79,81,11609,2146961846,2147518061,2147303076,2147524580,2147091428,2146917869,2147733860,2147121654,3306,0,9,61971
1362586253,5805,1012.1300048828125000,257.9431152343750000,563.7398071289062000,5.5374159812927250,35.9070014953613300,68,400,98,79,81,11611,2146961865,2147519798,2147297618,2147526811,2147088155,2146913462,2147731273,2147119451,3480,-1,8,65422
1362589853,5805,1012.1300048828125000,260.6091003417969000,564.9647216796875000,5.4988250732421875,35.8037185668945300,68,405,97,80,82,11606,2146958674,2147518436,2147300425,2147523858,2147089956,2146912073,2147731099,2147120932,3443,-1,8,56126
1362593453,5802,1015.5499877929688000,261.8660888671875000,565.3792724609375000,5.4857602119445800,35.7520790100097660,70,406,98,78,81,11599,2146959698,2147517641,2147302674,2147522395,2147090486,2146918116,2147736768,2147120566,3091,-1,8,22333
1362597053,5804,1013.6799926757812000,260.5162048339844000,565.5255737304688000,5.4811520576477050,35.8184394836425800,69,409,98,80,80,11600,2146960109,2147518226,2147300845,2147524809,2147089865,2146916105,2147732086,2147118491,3450,-1,8,768
1362600653,5808,1011.7600097656250000,261.7766113281250000,565.7797241210938000,5.4731450080871580,35.7634201049804700,69,410,98,77,81,11578,2146962797,2147521206,2147302144,2147526400,2147088704,2146917476,2147733092,2147118272,3571,0,8,6178
1362604253,5807,1015.2299804687500000,261.3452148437500000,565.0172729492188000,5.4971680641174320,35.7698707580566400,69,409,98,80,81,11598,2146962706,2147515565,2147301586,2147528365,2147088091,2146914002,2147733458,2147120000,42,-1,8,6168
1362607853,5805,1014.6400146484375000,261.0080871582031000,565.4683227539062000,5.4829578399658200,35.7937011718750000,70,412,97,78,80,11601,2146960457,2147518573,2147300534,2147525915,2147089078,2146913133,2147728694,2147119177,3368,-1,8,56965
1362611453,5804,1015.5399780273438000,260.0317077636719000,566.1334228515625000,5.4619960784912110,35.8524093627929700,69,410,99,78,80,11599,2146961554,2147518774,2147301101,2147527177,2147092160,2146916580,2147731904,2147120850,3441,-1,8,17962
1362615053,5805,1014.9199829101562000,259.9332885742187500,565.6303710937500000,5.4778480529785160,35.8476905822753900,69,404,97,78,80,11599,2146959149,2147522148,2147301604,2147525531,2147089892,2146913088,2147731446,2147120246,283,-1,8,48615
1362618653,5808,1014.9899902343750000,262.3511047363281000,566.1301269531250000,5.4620990753173830,35.7431297302246100,69,411,97,78,81,11598,2146960960,2147521563,2147301906,2147526601,2147089746,2146916333,2147729280,2147120804,3595,-1,9,10950
1362622253,5807,1019.7700195312500000,263.1088867187500000,566.3878784179688000,5.4539718627929690,35.7127799987793000,69,417,100,78,81,11593,2146958016,2147517622,2147299995,2147523894,2147090395,2146915821,2147731666,2147119241,178,-1,8,50487
1362625853,5809,1022.7999877929688000,259.2998046875000000,563.9348144531250000,5.5312728881835940,35.8465805053710940,68,417,99,78,80,11589,2146963264,2147513956,2147302848,2147526445,2147090249,2146914276,2147731821,2147116946,61,-1,8,39224
1362629453,5811,1021.3200073242188000,257.8341979980469000,562.7294921875000000,5.5692348480224610,35.8940811157226560,70,416,97,80,80,11592,2146962221,2147518208,2147300178,2147525129,2147088036,2146918902,2147730121,2147121024,84,0,8,14403
1362633053,5805,1022.5300292968750000,258.1812133789062500,562.2999877929688000,5.5827598571777340,35.8692588806152340,69,419,97,77,80,11589,2146960192,2147516434,2147302180,2147525275,2147087616,2146917915,2147730788,2147119643,3460,0,8,40767
1362636653,5805,1024.4399414062500000,255.8609008789062500,560.1923828125000000,5.6491050720214840,35.9415283203125000,69,417,96,79,81,11592,2146959076,2147516672,2147301531,2147524598,2147085723,2146917065,2147729965,2147122550,3468,-1,8,16433
1362640253,5806,1015.7600097656250000,256.7495117187500000,561.6420288085938000,5.6034789085388180,35.9254417419433600,69,412,97,79,81,11589,2146960923,2147517741,2147300114,2147523337,2147089152,2146917714,2147728603,2147119296,3164,-1,8,42337
1362643853,5808,1020.1799926757812000,256.7026977539062500,562.3690185546875000,5.5805869102478030,35.9409217834472660,69,416,98,79,80,11577,2146960420,2147520201,2147301933,2147525312,2147090258,2146922267,2147732617,2147120978,10,-1,8,41568
1362647453,5806,1021.5300292968750000,258.2770080566406000,563.3579711914062000,5.5494399070739750,35.8845291137695300,69,418,98,79,80,11579,2146960612,2147518866,2147300745,2147523282,2147088685,2146919360,2147735542,2147121910,3356,0,9,50477
1362651053,5804,1025.1600341796875000,258.1254882812500000,562.2000122070312000,5.5859107971191410,35.8699684143066400,70,422,98,79,81,11580,2146963145,2147517668,2147299483,2147525824,2147085869,2146916260,2147733568,2147122450,3218,-1,8,3423
1362654653,5809,1021.5900268554688000,257.1718139648437500,561.5794067382812000,5.6054477691650390,35.9037017822265600,70,418,97,78,80,11578,2146960969,2147518116,2147301504,2147525110,2147085549,2146917476,2147729426,2147120969,143,-1,8,17949
1362658253,5806,1017.9199829101562000,257.6482849121094000,561.8723144531250000,5.5962262153625490,35.8867683410644500,70,426,98,79,81,11577,2146961609,2147518418,2147303076,2147526171,2147089536,2146920466,2147734107,2147119698,195,0,8,34789
1362661853,5808,1023.0900268554688000,257.6322937011719000,563.8175048828125000,5.5349688529968260,35.9233093261718750,71,426,97,78,80,11577,2146961636,2147516352,2147300388,2147524379,2147087314,2146917595,2147734134,2147123181,11,0,8,41468
1362665453,5804,1018.8599853515625000,259.9462890625000000,564.1564941406250000,5.5242900848388670,35.8197708129882800,71,429,98,79,80,11578,2146959414,2147521508,2147303030,2147524882,2147088054,2146914870,2147730825,2147117860,3550,-1,9,42801
1362666955,5806,1016.6799926757812000,261.1965026855469000,565.9755249023438000,5.4669718742370605,35.7947883605957000,71,427,99,79,80,11586,2146963181,2147519945,2147300973,2147526464,2147088201,2146914733,2147736758,2147121664,461,-1,8,30072
